VLG2FB LEMG-LEBB

Flight info

Callsign VLG2FB
Flight time N/A
Altitude 34000
Route BLN N865 VTB N867 DGO
Aircraft A320/M-SDE3FGHIRWY/LB1

Departure

Time N/A
Airport Málaga-Costa del Sol Airport (LEMG)

Arrival

Time 2026-05-03 20:42
Airport Bilbao Airport (LEBB)
Time Latitude Longitude Altitude Speed Heading
2026-05-03 20:15 41.00152 -3.21380 34007 ft 476 kts
2026-05-03 20:15 41.06684 -3.19896 34006 ft 476 kts
2026-05-03 20:16 41.13216 -3.18422 34019 ft 477 kts
2026-05-03 20:16 41.19755 -3.16950 34007 ft 477 kts
2026-05-03 20:17 41.26293 -3.15477 34000 ft 477 kts
2026-05-03 20:17 41.32837 -3.14001 34012 ft 477 kts
2026-05-03 20:18 41.39382 -3.12518 34003 ft 477 kts
2026-05-03 20:18 41.45934 -3.11028 34000 ft 478 kts
2026-05-03 20:19 41.52485 -3.09532 34022 ft 478 kts
2026-05-03 20:19 41.55769 -3.08785 33827 ft 479 kts
2026-05-03 20:19 41.59055 -3.08043 33551 ft 479 kts
2026-05-03 20:19 41.62341 -3.07304 33281 ft 479 kts
2026-05-03 20:20 41.65633 -3.06561 33015 ft 480 kts
2026-05-03 20:20 41.68931 -3.05813 32748 ft 480 kts
2026-05-03 20:20 41.72224 -3.05059 32464 ft 479 kts
2026-05-03 20:20 41.75501 -3.04305 32210 ft 478 kts
2026-05-03 20:21 41.78774 -3.03549 31951 ft 477 kts
2026-05-03 20:21 41.82037 -3.02795 31695 ft 475 kts
2026-05-03 20:21 41.85292 -3.02043 31441 ft 474 kts
2026-05-03 20:21 41.88530 -3.01298 31185 ft 472 kts
2026-05-03 20:22 41.91765 -3.00556 30940 ft 471 kts
2026-05-03 20:22 41.94990 -2.99814 30716 ft 469 kts
2026-05-03 20:22 41.98207 -2.99070 30476 ft 469 kts
2026-05-03 20:22 42.01415 -2.98323 30226 ft 468 kts
2026-05-03 20:23 42.04617 -2.97575 29980 ft 466 kts
2026-05-03 20:23 42.07803 -2.96833 29623 ft 462 kts
2026-05-03 20:23 42.10957 -2.96098 29052 ft 458 kts
2026-05-03 20:23 42.14082 -2.95371 28507 ft 454 kts
2026-05-03 20:24 42.17145 -2.94662 27977 ft 451 kts
2026-05-03 20:24 42.20225 -2.93949 27431 ft 446 kts
2026-05-03 20:24 42.23273 -2.93238 26920 ft 443 kts
2026-05-03 20:24 42.26294 -2.92529 26406 ft 439 kts
2026-05-03 20:25 42.29294 -2.91825 25919 ft 435 kts
2026-05-03 20:25 42.32265 -2.91129 25435 ft 431 kts
2026-05-03 20:25 42.35205 -2.90443 25053 ft 427 kts
2026-05-03 20:25 42.38132 -2.89761 24955 ft 426 kts
2026-05-03 20:26 42.41050 -2.89070 24968 ft 426 kts
2026-05-03 20:26 42.43904 -2.87961 24967 ft 428 kts 20°
2026-05-03 20:26 42.46578 -2.86171 24852 ft 432 kts 31°
2026-05-03 20:26 42.48255 -2.84629 24134 ft 432 kts 38°
2026-05-03 20:27 42.50524 -2.81933 22896 ft 434 kts 42°
2026-05-03 20:27 42.52760 -2.79193 21995 ft 434 kts 42°
2026-05-03 20:27 42.54981 -2.76478 21347 ft 425 kts 42°
2026-05-03 20:27 42.57159 -2.73828 20590 ft 415 kts 42°
2026-05-03 20:28 42.59304 -2.71234 20143 ft 411 kts 42°
2026-05-03 20:28 42.61417 -2.68684 19643 ft 405 kts 42°
2026-05-03 20:28 42.63512 -2.66155 19138 ft 402 kts 42°
2026-05-03 20:28 42.65596 -2.63635 18656 ft 400 kts 42°
2026-05-03 20:29 42.67640 -2.61159 18156 ft 398 kts 42°
2026-05-03 20:29 42.69700 -2.58665 17652 ft 395 kts 42°
2026-05-03 20:29 42.71745 -2.56185 17170 ft 392 kts 42°
2026-05-03 20:29 42.73773 -2.53720 16702 ft 390 kts 42°
2026-05-03 20:30 42.75786 -2.51268 16223 ft 387 kts 42°
2026-05-03 20:30 42.77960 -2.49088 15383 ft 394 kts 26°
2026-05-03 20:30 42.80533 -2.47848 14823 ft 391 kts 13°
2026-05-03 20:30 42.83156 -2.46892 14337 ft 389 kts 13°
2026-05-03 20:31 42.85771 -2.45939 13705 ft 390 kts 13°
2026-05-03 20:31 42.88394 -2.44984 12885 ft 380 kts 13°
2026-05-03 20:31 42.90874 -2.44082 12119 ft 369 kts 13°
2026-05-03 20:31 42.93323 -2.43192 11365 ft 360 kts 12°
2026-05-03 20:32 42.95713 -2.42322 10632 ft 351 kts 12°
2026-05-03 20:32 42.98013 -2.41485 10457 ft 330 kts 12°
2026-05-03 20:32 43.00141 -2.40704 10406 ft 305 kts 12°
2026-05-03 20:32 43.02162 -2.39965 10356 ft 298 kts 12°
2026-05-03 20:33 43.04161 -2.39242 10310 ft 296 kts 12°
2026-05-03 20:33 43.06193 -2.38846 9790 ft 293 kts 355°
2026-05-03 20:33 43.08168 -2.39289 9137 ft 286 kts 338°
2026-05-03 20:33 43.09918 -2.40458 8562 ft 275 kts 321°
2026-05-03 20:34 43.11319 -2.42160 8106 ft 267 kts 310°
2026-05-03 20:34 43.12568 -2.44019 7648 ft 261 kts 305°
2026-05-03 20:34 43.13489 -2.46080 7196 ft 249 kts 294°
2026-05-03 20:34 43.14258 -2.48172 6760 ft 243 kts 295°
2026-05-03 20:35 43.15015 -2.50216 6335 ft 239 kts 295°
2026-05-03 20:35 43.15752 -2.52196 6114 ft 225 kts 295°
2026-05-03 20:35 43.16438 -2.54036 6008 ft 210 kts 295°
2026-05-03 20:35 43.17087 -2.55785 5999 ft 205 kts 295°
2026-05-03 20:36 43.17733 -2.57526 5944 ft 206 kts 295°
2026-05-03 20:36 43.18378 -2.59265 5717 ft 204 kts 295°
2026-05-03 20:36 43.19011 -2.60971 5410 ft 197 kts 295°
2026-05-03 20:36 43.19618 -2.62605 5123 ft 188 kts 294°
2026-05-03 20:37 43.20199 -2.64172 4847 ft 181 kts 295°
2026-05-03 20:37 43.20763 -2.65698 4591 ft 178 kts 295°
2026-05-03 20:37 43.21319 -2.67199 4304 ft 175 kts 296°
2026-05-03 20:37 43.21862 -2.68669 4037 ft 171 kts 298°
2026-05-03 20:38 43.22394 -2.70108 3778 ft 167 kts 298°
2026-05-03 20:38 43.22916 -2.71520 3528 ft 165 kts 298°
2026-05-03 20:38 43.23434 -2.72923 3286 ft 164 kts 298°
2026-05-03 20:38 43.23949 -2.74318 3039 ft 163 kts 298°
2026-05-03 20:39 43.24460 -2.75702 2798 ft 163 kts 298°
2026-05-03 20:39 43.24970 -2.77084 2544 ft 162 kts 298°
2026-05-03 20:39 43.25476 -2.78457 2302 ft 161 kts 298°
2026-05-03 20:39 43.25971 -2.79801 2076 ft 152 kts 298°
2026-05-03 20:40 43.26430 -2.81049 1830 ft 142 kts 298°
2026-05-03 20:40 43.26867 -2.82237 1605 ft 138 kts 297°
2026-05-03 20:40 43.27301 -2.83414 1396 ft 137 kts 298°
2026-05-03 20:40 43.27731 -2.84583 1178 ft 137 kts 297°
2026-05-03 20:41 43.28160 -2.85749 981 ft 137 kts 297°
2026-05-03 20:41 43.28587 -2.86918 781 ft 136 kts 296°
2026-05-03 20:41 43.29006 -2.88073 566 ft 134 kts 297°
2026-05-03 20:41 43.29428 -2.89217 361 ft 135 kts 297°
2026-05-03 20:42 43.29847 -2.90346 167 ft 134 kts 297°
2026-05-03 20:42 43.30229 -2.91386 132 ft 93 kts 297°
2026-05-03 20:42 43.30386 -2.91802 133 ft 5 kts 309°
2026-05-03 20:42 43.30397 -2.91821 133 ft 7 kts 309°
2026-05-03 20:43 43.30449 -2.91900 131 ft 13 kts 313°
2026-05-03 20:43 43.30508 -2.91972 132 ft 12 kts 322°
2026-05-03 20:43 43.30576 -2.92037 132 ft 11 kts 329°
2026-05-03 20:43 43.30631 -2.91996 132 ft 12 kts 86°
2026-05-03 20:44 43.30605 -2.91901 132 ft 11 kts 114°
2026-05-03 20:44 43.30565 -2.91794 132 ft 14 kts 117°
2026-05-03 20:44 43.30519 -2.91670 132 ft 16 kts 116°
2026-05-03 20:44 43.30465 -2.91519 132 ft 20 kts 116°
2026-05-03 20:45 43.30398 -2.91337 132 ft 23 kts 116°
2026-05-03 20:45 43.30336 -2.91167 132 ft 15 kts 117°
2026-05-03 20:45 43.30307 -2.91068 132 ft 11 kts 86°
2026-05-03 20:45 43.30365 -2.90999 132 ft 12 kts 27°
2026-05-03 20:46 43.30413 -2.90927 132 ft 11 kts 83°
2026-05-03 20:46 43.30412 -2.90818 132 ft 11 kts 96°
2026-05-03 20:46 43.30379 -2.90713 132 ft 13 kts 116°
2026-05-03 20:46 43.30343 -2.90616 132 ft 9 kts 116°
2026-05-03 20:47 43.30341 -2.90550 132 ft 7 kts 53°
2026-05-03 20:47 43.30367 -2.90527 132 ft 2 kts 24°
2026-05-03 20:47 43.30382 -2.90517 132 ft 0 kts 27°